Location: Unspecified
(0.0000°N, 0.0000°E)
Time: 04:08:03
(UTC+00:00)

KKS-1 - Pass Details

Date: 09 December 2017
Orbit: 637 x 651 km, 98.4° (Epoch: 20 April)

Event Time Altitude Azimuth Distance (km) Brightness Sun altitude
Rises 04:49:38 0° 165° (SSE) 2,968 ? -14.4°
Reaches altitude 10° 04:51:51 10° 162° (SSE) 2,056 ? -13.9°
Maximum altitude 04:56:19 73° 78° (ENE) 682 ? -12.9°
Drops below altitude 10° 05:00:46 10° 353° (N) 2,046 ? -11.9°
Sets 05:02:58 0° 352° (N) 2,952 ? -11.4°
